カタログに戻る

RTU MIREA 1

運用中アマチュア無線SSO
NORAD 61785·PAYLOAD·🇷🇺 Russia

打ち上げ Nov 4, 2024 から Vostochny Cosmodrome

Loading…

次のパス (今後24時間)

TLE

最新Source: Space-Track

元期: Sep 14, 2026, 10:42 UTC

1 61785U 24199BC  26257.44642559  .00087030  00000-0  63036-3 0  9992
2 61785  97.2726 137.3716 0002503 316.9185  43.1883 15.73179765148442

AllMySatでRTU MIREA 1をリアルタイム追跡

Download on the App Store